Weather History for Charlotte, NC

Change the Weather History Date:

Thursday, October 24, 2002

  Actual Average Record
Temperature  
Mean Temperature 58 °F 58 °F  
Max Temperature 61 °F 70 °F 88 °F (1939)
Min Temperature 55 °F 46 °F 28 °F (2006)
Degree Days  
Heating Degree Days 7 8  
Month to date heating degree days 122  
Since 1 July heating degree days 145  
Cooling Degree Days 0 1  
Month to date cooling degree days 37  
Year to date cooling degree days 1512  
Growing Degree Days 8 (Base 50)    
Moisture  
Dew Point 54 °F    
Average Humidity 90    
Maximum Humidity 100    
Minimum Humidity 72    
Precipitation  
Precipitation 0.00 in 0.10 in 0.85 in (1913)
Month to date precipitation 2.72  
Year to date precipitation 34.56  
Snow  
Snow 0.00 in 0.00 in 0.00 in ()
Month to date snowfall 0.0  
Since 1 July snowfall 0.0  
Since 1 September snowfall 0.0  
Snow Depth -    
Sea Level Pressure  
Sea Level Pressure 30.24 in    
Wind  
Wind Speed 5 mph (NE)    
Max Wind Speed 12 mph    
Max Gust Speed -    
Visibility 5 miles    
Events      
T = Trace of Precipitation, MM = Missing Value Source: NWS Daily Summary

Daily Weather History Graph

Daily Weather History Graph

Search for Another Location

Airport:

Trip Planner

Search our weather history database for the weather conditions in past years. The results will help you decide how hot, cold, wet, or windy it might be!

Date:

Astronomy

Oct. 24, 2002 Rise Set
Actual Time 7:37 AM EDT 6:37 PM EDT
Civil Twilight 7:11 AM EDT 7:03 PM EDT
Nautical Twilight 6:42 AM EDT 7:33 PM EDT
Astronomical Twilight 6:12 AM EDT 8:02 PM EDT
Moon 8:46 PM EDT (10/24) 10:37 AM EDT (10/24)
Length of Visible Light 11h 51m
Length of Day
11h 00m
Waning Gibbous, 90% of the Moon is Illuminated
Oct 24
Waning Gibbous
Oct 29
Last Quarter
Nov 4
New
Nov 11
First Quarter
Nov 19
Full

Hourly Weather History & Observations

Time (EDT) Temp. Dew Point Humidity Pressure Visibility Wind Dir Wind Speed Gust Speed Precip Events Conditions
12:51 AM 55.0 °F 54.0 °F 96% 30.22 in 5.0 mi Calm Calm - N/A   Overcast
1:51 AM 55.0 °F 53.1 °F 93% 30.22 in 6.0 mi Calm Calm - N/A   Overcast
2:51 AM 55.9 °F 54.0 °F 93% 30.22 in 5.0 mi Calm Calm - N/A   Overcast
3:51 AM 55.0 °F 54.0 °F 96% 30.22 in 5.0 mi Calm Calm - N/A   Overcast
4:51 AM 55.0 °F 54.0 °F 96% 30.21 in 5.0 mi Calm Calm - N/A   Overcast
5:51 AM 57.0 °F 54.0 °F 89% 30.22 in 6.0 mi Calm Calm - 0.00 in   Overcast
6:51 AM 55.9 °F 54.0 °F 93% 30.23 in 6.0 mi Calm Calm - N/A   Overcast
7:51 AM 55.9 °F 53.1 °F 90% 30.24 in 7.0 mi NE 5.8 mph - N/A   Overcast
8:51 AM 55.9 °F 53.1 °F 90% 30.25 in 4.0 mi NE 8.1 mph - N/A   Overcast
9:13 AM 55.4 °F 53.6 °F 94% 30.26 in 4.0 mi NE 8.1 mph - N/A   Overcast
9:32 AM 55.4 °F 53.6 °F 94% 30.27 in 3.0 mi NE 8.1 mph - N/A   Overcast
9:51 AM 57.0 °F 53.1 °F 87% 30.27 in 4.0 mi ENE 9.2 mph - N/A   Overcast
10:14 AM 55.4 °F 53.6 °F 94% 30.28 in 4.0 mi NNE 10.4 mph - N/A   Overcast
10:23 AM 55.4 °F 53.6 °F 94% 30.28 in 3.0 mi NE 10.4 mph - N/A   Overcast
10:51 AM 55.9 °F 53.1 °F 90% 30.27 in 3.0 mi NNE 11.5 mph - N/A   Overcast
11:51 AM 57.9 °F 53.1 °F 84% 30.27 in 6.0 mi NNE 8.1 mph - N/A   Haze
12:36 PM 60.8 °F 51.8 °F 72% 30.27 in 8.0 mi ENE 9.2 mph - N/A   Overcast
12:51 PM 60.1 °F 53.1 °F 78% 30.25 in 8.0 mi NE 10.4 mph - N/A   Overcast
1:51 PM 60.1 °F 52.0 °F 75% 30.24 in 8.0 mi ENE 9.2 mph - N/A   Overcast
2:51 PM 61.0 °F 53.1 °F 75% 30.22 in 7.0 mi NE 8.1 mph - N/A   Overcast
3:51 PM 60.1 °F 53.1 °F 78% 30.22 in 6.0 mi NNE 9.2 mph - N/A   Haze
4:51 PM 60.1 °F 53.1 °F 78% 30.20 in 6.0 mi ENE 10.4 mph - N/A   Haze
5:51 PM 59.0 °F 53.1 °F 81% 30.21 in 7.0 mi ENE 8.1 mph - N/A   Overcast
6:21 PM 57.2 °F 53.6 °F 88% 30.24 in 7.0 mi East 8.1 mph - N/A   Overcast
6:51 PM 57.9 °F 54.0 °F 87% 30.23 in 7.0 mi NE 5.8 mph - N/A   Overcast
7:51 PM 57.0 °F 54.0 °F 89% 30.24 in 6.0 mi NE 6.9 mph - N/A   Overcast
8:13 PM 57.2 °F 55.4 °F 94% 30.25 in 6.0 mi NNE 8.1 mph - N/A   Overcast
8:51 PM 57.0 °F 55.0 °F 93% 30.24 in 4.0 mi NNE 8.1 mph - 0.00 in   Light Drizzle
9:30 PM 55.4 °F 55.4 °F 100% 30.23 in 3.0 mi North 6.9 mph - 0.00 in   Light Drizzle
9:51 PM 55.9 °F 55.0 °F 97% 30.23 in 3.0 mi NNE 9.2 mph - 0.00 in   Light Drizzle
10:27 PM 55.4 °F 55.4 °F 100% 30.24 in 2.5 mi NNE 6.9 mph - 0.00 in   Light Drizzle
10:51 PM 55.0 °F 55.0 °F 100% 30.24 in 3.0 mi NNE 8.1 mph - 0.00 in   Light Drizzle
11:51 PM 55.0 °F 55.0 °F 100% 30.23 in 1.8 mi NE 9.2 mph - 0.00 in   Light Drizzle